sat.trackr.live / text

‹ back to catalog

STARLINK-35774

NORAD 66283 · 2025-247U

PAYLOAD ACTIVE UNKNOWN

§ Identity

Operator
Country
US
Launch date
2025-10-31
Launch site
AFWTR
Launch vehicle
Mass (kg)
RCS (m²)

Purposes: comms

External: N2YO · Heavens-Above · Gunter

§ Orbital elements

Epoch: 2026-05-24T12:45:26.158464Z

Period
94.11 min
Inclination
53.1585°
Eccentricity
0.0001110
Mean motion
15.30199974 rev/d
Perigee alt
474.5 km
Apogee alt
476.0 km
Semi-major
6,853.4 km
B*
3.7777e-4
RAAN
199.2884°
Arg perigee
80.2819°
Mean anomaly
279.8307°
Rev number
3,264

§ Raw data

STARLINK-357741 66283U 25247U   26144.53155276  .00010846  00000+0  37777-3 0  99982 66283  53.1585 199.2884 0001110  80.2819 279.8307 15.30199974 32645

JSON: /api/v1/satellites/66283 · /tle

For live sub-satellite position, see the globe view (requires WebGL).

§ Visibility from observer

Set your observer location to see the next 7 days of passes ≥ 10°. The values pass through the URL so the page stays shareable.

No JS? Fill the form by hand. The geolocation button needs JavaScript.